Lamar, CO

3:10 AM MST on December 18, 2017 (GMT -0700)
Lamar Municipal

Weather History for KLAA - January, 2013

Change the Weather History Date:

Thursday, January 10, 2013

  Actual Average Record
Temperature  
Mean Temperature 37 °F 28 °F  
Max Temperature 45 °F 44 °F 71 °F (1928)
Min Temperature 29 °F 13 °F -19 °F (1962)
Degree Days  
Heating Degree Days 28 37  
Month to date heating degree days 391 370  
Since 1 July heating degree days 2541 2683  
Cooling Degree Days 0 0  
Month to date cooling degree days 0 0  
Year to date cooling degree days 0 0  
Moisture  
Dew Point 33 °F    
Average Humidity 88    
Maximum Humidity 100    
Minimum Humidity 76    
Precipitation  
Precipitation T in 0.01 in 0.50 in (1918)
Month to date precipitation T 0.06  
Year to date precipitation T 0.06  
Sea Level Pressure  
Sea Level Pressure 29.78 in    
Wind  
Wind Speed 3 mph (West)    
Max Wind Speed 12 mph    
Max Gust Speed 15 mph    
Visibility 7 miles    
Events Fog    
T = Trace of Precipitation, MM = Missing Value Source: NWS Daily Summary

Daily Weather History Graph

Daily Weather History Graph

Search for Another Location

Airport or City:

Trip Planner

Search our weather history database for the weather conditions in past years. The results will help you decide how hot, cold, wet, or windy it might be!

Date:

Astronomy

Jan. 10, 2013 Rise Set
Actual Time 7:06 AM MST 4:50 PM MST
Civil Twilight 6:37 AM MST 5:19 PM MST
Nautical Twilight 6:05 AM MST 5:51 PM MST
Astronomical Twilight 5:33 AM MST 6:23 PM MST
Moon 5:48 AM MST (1/10) 4:00 PM MST (1/10)
Length of Visible Light 10h 41m
Length of Day
9h 43m
Waning Crescent, 2% of the Moon is Illuminated
Jan 10
Waning Crescent
Jan 11
New
Jan 18
First Quarter
Jan 26
Full
Feb 3
Last Quarter

Hourly Weather History & Observations

Time (MST) Temp. Windchill Dew Point Humidity Pressure Visibility Wind Dir Wind Speed Gust Speed Precip Events Conditions
12:53 AM 33.1 °F - 30.0 °F 89% 30.14 in 10.0 mi Calm Calm - 0.00 in   Overcast
1:37 AM 33.8 °F 29.6 °F 30.2 °F 87% 30.11 in 10.0 mi East 4.6 mph - N/A   Overcast
1:53 AM 34.0 °F - 30.0 °F 85% 30.10 in 10.0 mi Calm Calm - N/A   Overcast
2:53 AM 34.0 °F - 30.0 °F 85% 30.05 in 10.0 mi Calm Calm - N/A   Overcast
3:07 AM 33.8 °F 30.8 °F 30.2 °F 87% 30.06 in 10.0 mi East 3.5 mph - N/A   Overcast
3:28 AM 33.8 °F 30.8 °F 30.2 °F 87% 30.04 in 10.0 mi East 3.5 mph - 0.00 in   Overcast
3:53 AM 33.1 °F - 30.0 °F 89% 30.01 in 10.0 mi Calm Calm - 0.00 in   Overcast
4:53 AM 33.1 °F 30.0 °F 30.0 °F 89% 29.99 in 10.0 mi WNW 3.5 mph - N/A   Overcast
5:29 AM 33.8 °F 30.8 °F 30.2 °F 87% 29.95 in 10.0 mi NNW 3.5 mph - N/A   Overcast
5:53 AM 33.1 °F 30.0 °F 30.0 °F 89% 29.97 in 10.0 mi NNW 3.5 mph - N/A   Overcast
6:53 AM 33.1 °F 28.7 °F 30.0 °F 89% 29.97 in 10.0 mi ESE 4.6 mph - N/A   Overcast
7:20 AM 33.8 °F 28.6 °F 30.2 °F 87% 29.94 in 6.0 mi SE 5.8 mph - N/A   Overcast
7:53 AM 33.1 °F - 30.9 °F 92% 29.96 in 5.0 mi Calm Calm - N/A   Overcast
8:30 AM 33.8 °F - 33.8 °F 100% 29.93 in 1.8 mi Calm Calm - N/A   Overcast
8:42 AM 33.8 °F - 33.8 °F 100% 29.92 in 1.0 mi Calm Calm - N/A   Overcast
8:53 AM 33.1 °F - 33.1 °F 100% 29.95 in 1.0 mi Calm Calm - N/A   Overcast
9:00 AM 33.8 °F - 33.8 °F 100% 29.90 in 0.8 mi Calm Calm - N/A   Overcast
9:53 AM 34.0 °F - 34.0 °F 100% 29.89 in 0.8 mi Calm Calm - N/A   Overcast
10:12 AM 35.6 °F 32.8 °F 33.8 °F 93% 29.84 in 1.0 mi SE 3.5 mph - N/A   Overcast
10:30 AM 35.6 °F 30.7 °F 35.6 °F 100% 29.83 in 2.5 mi SW 5.8 mph - N/A   Overcast
10:48 AM 35.6 °F 31.7 °F 35.6 °F 100% 29.81 in 4.0 mi WSW 4.6 mph - N/A   Overcast
10:53 AM 37.0 °F 31.6 °F 36.0 °F 96% 29.83 in 5.0 mi WSW 6.9 mph - N/A   Overcast
11:19 AM 39.2 °F 34.2 °F 37.4 °F 93% 29.78 in 10.0 mi WSW 6.9 mph - N/A   Overcast
11:33 AM 41.0 °F 38.0 °F 35.6 °F 81% 29.77 in 10.0 mi SW 4.6 mph - N/A   Overcast
11:53 AM 43.0 °F 40.3 °F 37.0 °F 80% 29.74 in 10.0 mi WSW 4.6 mph - N/A   Mostly Cloudy
12:00 PM 44.6 °F 42.2 °F 37.4 °F 76% 29.74 in 10.0 mi West 4.6 mph - N/A   Mostly Cloudy
12:53 PM 44.1 °F 42.5 °F 37.0 °F 76% 29.72 in 10.0 mi WNW 3.5 mph - N/A   Overcast
1:34 PM 44.6 °F - 37.4 °F 76% 29.70 in 10.0 mi Calm Calm - N/A   Overcast
1:53 PM 44.1 °F - 37.0 °F 76% 29.69 in 10.0 mi Calm Calm - N/A   Scattered Clouds
2:53 PM 44.1 °F 40.8 °F 37.0 °F 76% 29.69 in 10.0 mi East 5.8 mph - N/A   Clear
3:53 PM 44.1 °F 40.1 °F 37.0 °F 76% 29.65 in 10.0 mi East 6.9 mph - N/A   Clear
4:53 PM 37.9 °F 32.7 °F 35.1 °F 89% 29.65 in 10.0 mi ENE 6.9 mph - N/A   Clear
5:53 PM 37.0 °F 31.0 °F 35.1 °F 93% 29.62 in 9.0 mi East 8.1 mph - N/A   Clear
6:53 PM 37.0 °F - 35.1 °F 93% 29.58 in 10.0 mi Calm Calm - N/A   Clear
7:53 PM 37.0 °F - 35.1 °F 93% 29.57 in 10.0 mi Calm Calm - N/A   Clear
8:53 PM 33.1 °F 27.7 °F 32.0 °F 96% 29.58 in 7.0 mi NNW 5.8 mph - N/A   Clear
9:27 PM 33.8 °F 30.8 °F 33.8 °F 100% 29.55 in 8.0 mi North 3.5 mph - N/A   Partly Cloudy
9:53 PM 33.1 °F - 32.0 °F 96% 29.57 in 6.0 mi Calm Calm - N/A   Mostly Cloudy
10:19 PM 32.0 °F 27.5 °F 32.0 °F 100% 29.55 in 2.0 mi SSW 4.6 mph - N/A   Overcast
10:27 PM 32.0 °F 27.5 °F 30.2 °F 93% 29.55 in 3.0 mi SW 4.6 mph - N/A   Overcast
10:53 PM 32.0 °F 26.4 °F 30.9 °F 96% 29.56 in 1.0 mi WNW 5.8 mph - N/A   Overcast
11:00 PM 32.0 °F 26.4 °F 30.2 °F 93% 29.54 in 0.2 mi NW 5.8 mph - N/A Fog Fog
11:21 PM 30.2 °F 25.4 °F 30.2 °F 100% 29.52 in 1.2 mi WNW 4.6 mph - N/A   Mostly Cloudy
11:24 PM 30.2 °F 25.4 °F 28.4 °F 93% 29.52 in 2.0 mi WNW 4.6 mph - N/A   Scattered Clouds
11:35 PM 28.4 °F 24.6 °F 28.4 °F 100% 29.52 in 4.0 mi West 3.5 mph - N/A   Partly Cloudy
11:53 PM 28.9 °F 22.8 °F 28.9 °F 100% 29.53 in 5.0 mi WSW 5.8 mph - N/A   Clear